TimeEST,TemperatureF,Dew PointF,Humidity,Sea Level PressureIn,VisibilityMPH,Wind Direction,Wind SpeedMPH,Gust SpeedMPH,PrecipitationIn,Events,Conditions,WindDirDegrees,DateUTC
12:15 AM,42.8,39.2,87,29.97,10.0,SSW,3.5,-,N/A,,Clear,200,2013-02-16 05:15:00
12:35 AM,39.2,37.4,93,29.96,10.0,Calm,Calm,-,N/A,,Clear,0,2013-02-16 05:35:00
12:55 AM,39.2,37.4,93,29.96,10.0,Calm,Calm,-,N/A,,Clear,0,2013-02-16 05:55:00
1:15 AM,39.2,37.4,93,29.95,10.0,WSW,3.5,-,N/A,,Clear,250,2013-02-16 06:15:00
1:35 AM,37.4,37.4,100,29.95,7.0,SW,3.5,-,N/A,,Clear,220,2013-02-16 06:35:00
1:55 AM,41.0,39.2,93,29.94,10.0,South,4.6,-,N/A,,Clear,190,2013-02-16 06:55:00
2:15 AM,42.8,39.2,87,29.94,10.0,SW,3.5,-,N/A,,Clear,230,2013-02-16 07:15:00
2:35 AM,39.2,37.4,93,29.94,10.0,Calm,Calm,-,N/A,,Clear,0,2013-02-16 07:35:00
2:55 AM,42.8,39.2,87,29.94,10.0,WSW,3.5,-,N/A,,Clear,240,2013-02-16 07:55:00
3:15 AM,42.8,39.2,87,29.93,10.0,SW,3.5,-,N/A,,Clear,220,2013-02-16 08:15:00
3:35 AM,42.8,39.2,87,29.92,10.0,Calm,Calm,-,N/A,,Clear,0,2013-02-16 08:35:00
3:55 AM,42.8,39.2,87,29.91,10.0,SW,3.5,-,N/A,,Clear,230,2013-02-16 08:55:00
4:15 AM,42.8,39.2,87,29.90,10.0,WSW,3.5,-,N/A,,Clear,250,2013-02-16 09:15:00
4:35 AM,42.8,39.2,87,29.89,10.0,Calm,Calm,-,N/A,,Clear,0,2013-02-16 09:35:00
4:55 AM,42.8,39.2,87,29.90,10.0,NW,10.4,-,N/A,,Clear,310,2013-02-16 09:55:00
5:15 AM,41.0,37.4,87,29.89,10.0,NW,4.6,-,N/A,,Clear,320,2013-02-16 10:15:00
5:35 AM,39.2,37.4,93,29.89,10.0,NW,5.8,-,N/A,,Clear,310,2013-02-16 10:35:00
6:50 AM,37.4,35.6,93,29.89,8.0,NW,5.8,-,N/A,,Clear,320,2013-02-16 11:50:00
8:45 AM,44.6,42.8,93,29.87,10.0,NNE,11.5,-,N/A,,Clear,20,2013-02-16 13:45:00
9:45 AM,48.2,42.8,82,29.87,10.0,NNE,13.8,-,N/A,,Clear,20,2013-02-16 14:45:00
11:50 AM,53.6,41.0,62,29.83,10.0,North,11.5,-,N/A,,Scattered Clouds,360,2013-02-16 16:50:00
12:45 PM,53.6,37.4,54,29.81,10.0,NNW,11.5,-,N/A,,Mostly Cloudy,340,2013-02-16 17:45:00
1:45 PM,48.2,33.8,58,29.80,10.0,NNW,17.3,23.0,N/A,Rain,Light Rain,330,2013-02-16 18:45:00
3:45 PM,37.4,33.8,87,29.85,5.0,NNW,17.3,23.0,N/A,Rain,Light Rain,330,2013-02-16 20:45:00
4:15 PM,37.4,33.8,87,29.85,6.0,NNW,17.3,-,N/A,Rain,Light Rain,330,2013-02-16 21:15:00
4:45 PM,37.4,35.6,93,29.83,6.0,NNW,11.5,-,N/A,,Overcast,330,2013-02-16 21:45:00
5:45 PM,37.4,35.6,93,29.84,10.0,WNW,9.2,-,N/A,,Overcast,290,2013-02-16 22:45:00
6:45 PM,37.4,35.6,93,29.87,10.0,NW,11.5,-,N/A,,Overcast,310,2013-02-16 23:45:00
7:45 PM,37.4,35.6,93,29.88,10.0,West,5.8,-,N/A,,Mostly Cloudy,280,2013-02-17 00:45:00
9:01 PM,37.4,30.2,75,29.91,0.5,WNW,18.4,-,N/A,Snow,Snow,290,2013-02-17 02:01:00
9:25 PM,33.8,33.8,100,29.90,7.0,North,6.9,-,N/A,,Mostly Cloudy,10,2013-02-17 02:25:00
9:50 PM,33.8,30.2,87,29.91,7.0,North,6.9,-,N/A,,Mostly Cloudy,350,2013-02-17 02:50:00
11:15 PM,33.8,30.2,87,29.96,2.0,WNW,15.0,19.6,N/A,,Overcast,300,2013-02-17 04:15:00
11:35 PM,33.8,30.2,87,29.95,7.0,WNW,11.5,-,N/A,,Overcast,300,2013-02-17 04:35:00
11:55 PM,33.8,30.2,87,29.97,10.0,WNW,11.5,-,N/A,,Overcast,290,2013-02-17 04:55:00